[[{"header":{"parameterUnit":"m.s-1","parameterCategory":1,"la1":30.2991,"la2":30.254,"lo1":-89.0895,"lo2":-89.0444,"dy":0.0017,"dx":0.0017,"nx":28,"ny":28,"refTime":"2025-11-10T09:00:00:Z","depth":0,"parameterNumber":2,"parameterNumberName":"U-component_of_WINDS"},"data":[0,0,0,0,0,0,0,0,0,0,0,0,0,0,0,0,0,0,0,0,0,0,0,0,0,0,0,0,0,0,0,0,0,0,0,0,0,0,0,0,0,0,0,0,0,0,0,0,0,0,0,0,0,0,0,0,0,0,3.0219,3.0219,0,3.0235,3.0235,3.0235,3.021,3.0209,3.0209,3.0208,3.0223,3.0224,3.0226,0,0,0,0,0,0,0,0,0,0,0,0,0,3.0166,3.0167,3.0219,3.0219,3.0219,3.0235,3.0235,3.0235,3.021,3.0209,3.0208,3.0207,3.0223,3.0224,3.0226,0,0,0,0,0,0,0,0,0,0,0,0,0,3.0186,3.0168,3.0219,3.0209,3.0208,3.0235,3.0235,3.0235,3.0211,3.0209,3.0208,3.0207,3.0222,3.0224,3.0226,3.0263,0,0,3.0232,3.0232,0,0,0,0,0,0,0,0,3.0185,3.0188,3.021,3.0209,3.0209,3.0219,3.0222,3.0245,3.0211,3.021,3.0208,3.0206,3.0223,3.0225,3.023,3.0264,3.0264,3.0232,3.0233,3.0234,3.0234,0,0,0,0,0,0,0,3.0184,3.0188,3.0225,3.021,3.0209,3.0203,3.0205,3.0226,3.0223,3.021,3.0208,3.021,3.0222,3.0229,3.0231,3.0265,3.0232,3.0233,3.0234,3.0235,3.0331,3.0332,0,0,0,0,0,0,3.0184,3.0187,3.0225,3.0226,3.0194,3.0205,3.0207,3.0217,3.0223,3.0223,3.0211,3.0209,3.0226,3.0229,3.0231,3.0276,3.0234,3.0235,3.0236,3.033,3.0331,3.0333,0,0,0,0,0,0,3.0183,3.0187,3.0224,3.0206,3.021,3.0208,3.0219,3.0218,3.0225,3.0224,3.0223,3.0218,3.0225,3.0228,3.0256,3.0276,3.0236,3.0238,3.0328,3.033,3.0332,3.0365,0,0,0,0,0,0,3.0181,3.0187,3.0201,3.0206,3.0211,3.0248,3.0221,3.0219,3.0228,3.0225,3.0231,3.023,3.0225,3.0253,3.0258,3.0278,3.0239,3.0326,3.0329,3.0331,3.0362,3.0368,3.0373,0,0,0,0,0,3.018,3.0209,3.0202,3.0207,3.0228,3.0249,3.0252,3.0245,3.023,3.0244,3.0244,3.023,3.0273,3.0256,3.0261,3.0282,3.0325,3.0328,3.0331,3.0359,3.0366,3.0373,0,0,0,0,0,0,3.0205,3.0209,3.0202,3.0233,3.0241,3.0245,3.0262,3.0253,3.0265,3.0261,3.0252,3.0254,3.0283,3.0285,3.0266,3.0319,3.0296,3.0301,3.0316,3.0323,3.0328,3.0327,3.0241,0,0,0,0,0,3.0215,3.0232,3.0235,3.0262,3.0267,3.0264,3.0273,3.0267,3.0275,3.0278,3.028,3.0288,3.0303,3.0313,3.0327,3.0363,3.0364,3.0379,3.0385,3.0389,3.0393,3.0413,3.042,3.0344,3.0344,3.0344,0,0,3.0234,3.0239,3.025,3.0268,3.0273,3.0291,3.0267,3.0287,3.03,3.0281,3.0307,3.0309,3.0317,3.0349,3.0363,3.0352,3.0415,3.0394,3.0397,3.0398,3.0417,3.0424,3.043,3.0346,3.0345,3.0345,0,0,3.0279,3.0284,3.0308,3.0315,3.0324,3.0322,3.0328,3.0334,3.0335,3.0361,3.0348,3.0364,3.039,3.0397,3.0404,3.0454,3.0442,3.0459,3.0487,3.0506,3.0512,3.0517,3.0535,3.0542,3.0462,3.0462,3.0462,0,3.0302,3.0328,3.0322,3.0343,3.0352,3.0337,3.0361,3.0368,3.0381,3.0387,3.0375,3.0409,3.0413,3.0447,3.0459,3.0465,3.0472,3.0457,3.0512,3.0517,3.0522,3.0539,3.0546,3.0464,3.0464,3.0464,3.0464,0,3.0356,3.0375,3.0394,3.0408,3.0419,3.0442,3.0439,3.0451,3.0445,3.0445,3.0473,3.0478,3.0493,3.0501,3.0494,3.0534,3.0527,3.0513,3.049,3.0531,3.0547,3.0554,3.0467,3.0467,3.0466,3.0465,0,0,3.0415,3.0427,3.0434,3.0441,3.0451,3.0466,3.0489,3.0505,3.0515,3.0525,3.0544,3.0568,3.0557,3.0564,3.0559,3.0576,3.0616,3.0561,3.0561,3.0571,3.0661,3.067,3.0678,3.0609,3.061,3.0611,3.066,0,3.046,3.05,3.0496,3.0533,3.0551,3.0538,3.0559,3.0567,3.0568,3.0584,3.0585,3.0602,3.0585,3.059,3.0607,3.0608,3.0634,3.0605,3.0627,3.0628,3.0624,3.0686,3.0696,3.0742,3.0666,3.0667,3.0668,0,3.0516,3.053,3.057,3.0579,3.0586,3.0604,3.062,3.0635,3.0645,3.0644,3.0655,3.0647,3.067,3.0648,3.0681,3.0661,3.067,3.0672,3.0674,3.0675,3.065,3.0689,3.0756,3.0763,3.0678,3.0677,3.0676,0,3.0556,3.0584,3.0612,3.0618,3.0629,3.0643,3.0648,3.0657,3.0667,3.068,3.0687,3.0703,3.0711,3.0724,3.0721,3.0705,3.0754,3.0732,3.0755,3.0755,3.0765,3.0764,3.0834,3.0772,3.0772,3.0771,3.0771,0,3.0606,3.063,3.063,3.0647,3.0675,3.0671,3.0698,3.0702,3.071,3.0728,3.0718,3.0735,3.073,3.0747,3.0745,3.0773,3.0777,3.0777,3.0776,3.0778,3.0778,3.0783,3.0779,3.0773,3.0773,3.0773,3.0772,0,3.0653,3.0654,3.0684,3.0693,3.0695,3.0716,3.0723,3.074,3.0741,3.0764,3.0769,3.0771,3.079,3.0789,3.0811,3.081,3.0844,3.0839,3.084,3.0839,3.0862,3.086,3.0937,3.0947,3.0879,3.088,3.088,0,3.0685,3.0704,3.0715,3.0727,3.0734,3.0752,3.0763,3.076,3.0772,3.0786,3.0801,3.082,3.0835,3.0867,3.087,3.0887,3.0883,3.0909,3.0885,3.0886,3.0883,3.0882,3.0884,3.0913,3.0914,3.0914,3.0915,0,3.074,3.074,3.0757,3.0774,3.0788,3.0801,3.0813,3.0823,3.0822,3.0836,3.0856,3.0868,3.0891,3.091,3.0927,3.0932,3.0924,3.0923,3.0929,3.093,3.093,3.093,3.0852,3.092,3.092,3.092,3.0919,3.0919,3.078,3.0797,3.0809,3.0828,3.0837,3.085,3.0866,3.087,3.0887,3.0906,3.0904,3.0927,3.0938,3.0959,3.0967,3.0985,3.0975,3.0984,3.0986,3.0988,3.0991,3.0928,3.0988,3.0987,3.0987,3.0987,3.0987,0,3.0836,3.0843,3.0861,3.0879,3.0894,3.0886,3.09,3.0913,3.0934,3.0945,3.0961,3.0985,3.1004,3.1009,3.1028,3.1041,3.1038,3.1046,3.1045,3.1046,3.0998,3.0991,3.1049,3.1049,3.1049,3.1049,3.1049,3.1049,3.0866,3.0894,3.0896,3.093,3.0937,3.096,3.0968,3.098,3.0989,3.1017,3.1033,3.1037,3.1046,3.1065,3.1083,3.1084,3.1091,3.1101,3.11,3.1055,3.1049,3.1043,3.1036,3.1103,3.1103,3.1147,3.1147,3.1147]},{"header":{"parameterUnit":"m.s-1","parameterCategory":1,"la1":30.2991,"la2":30.254,"lo1":-89.0895,"lo2":-89.0444,"dy":0.0017,"dx":0.0017,"nx":28,"ny":28,"refTime":"2025-11-10T09:00:00:Z","depth":0,"parameterNumber":3,"parameterNumberName":"V-component_of_WINDS"},"data":[0,0,0,0,0,0,0,0,0,0,0,0,0,0,0,0,0,0,0,0,0,0,0,0,0,0,0,0,0,0,0,0,0,0,0,0,0,0,0,0,0,0,0,0,0,0,0,0,0,0,0,0,0,0,0,0,0,0,-7.4977,-7.4978,0,-7.5109,-7.511,-7.5112,-7.5072,-7.5069,-7.5067,-7.5064,-7.5193,-7.5199,-7.5205,0,0,0,0,0,0,0,0,0,0,0,0,0,-7.4687,-7.4692,-7.4977,-7.4978,-7.498,-7.5108,-7.511,-7.5112,-7.5073,-7.5069,-7.5066,-7.5063,-7.5191,-7.5198,-7.5205,0,0,0,0,0,0,0,0,0,0,0,0,0,-7.4815,-7.4694,-7.4976,-7.4976,-7.4977,-7.5108,-7.511,-7.5112,-7.5073,-7.5069,-7.5065,-7.5061,-7.5189,-7.5197,-7.5206,-7.5343,0,0,-7.5233,-7.5237,0,0,0,0,0,0,0,0,-7.4808,-7.4825,-7.4975,-7.4976,-7.4978,-7.507,-7.5055,-7.519,-7.5074,-7.5037,-7.5064,-7.5059,-7.5155,-7.5166,-7.52,-7.5349,-7.5355,-7.5234,-7.524,-7.5243,-7.5246,0,0,0,0,0,0,0,-7.4799,-7.4819,-7.5029,-7.4977,-7.4979,-7.4968,-7.4982,-7.508,-7.5117,-7.504,-7.5037,-7.5054,-7.5155,-7.5191,-7.5202,-7.5356,-7.5234,-7.5242,-7.5247,-7.5251,-7.5626,-7.5631,0,0,0,0,0,0,-7.4789,-7.4812,-7.5024,-7.5033,-7.4881,-7.4976,-7.4992,-7.5044,-7.5116,-7.5123,-7.5057,-7.5051,-7.5178,-7.5192,-7.5207,-7.5373,-7.5243,-7.5252,-7.5257,-7.5622,-7.5627,-7.5632,0,0,0,0,0,0,-7.4783,-7.4809,-7.5019,-7.4922,-7.4948,-7.4986,-7.5045,-7.5049,-7.5086,-7.5129,-7.5135,-7.5088,-7.5175,-7.5194,-7.531,-7.5377,-7.5256,-7.5264,-7.5616,-7.5623,-7.563,-7.5706,0,0,0,0,0,0,-7.4775,-7.4807,-7.486,-7.4924,-7.4953,-7.5122,-7.5049,-7.5055,-7.5102,-7.5096,-7.5159,-7.5166,-7.5174,-7.5297,-7.5319,-7.5387,-7.5271,-7.561,-7.5619,-7.5628,-7.5698,-7.5715,-7.5729,0,0,0,0,0,-7.4765,-7.4875,-7.4863,-7.4889,-7.5021,-7.5126,-7.5143,-7.5151,-7.5107,-7.5161,-7.5189,-7.5164,-7.5366,-7.5309,-7.5334,-7.5405,-7.5606,-7.5617,-7.5627,-7.5691,-7.5712,-7.5729,0,0,0,0,0,0,-7.4815,-7.4883,-7.4871,-7.5005,-7.506,-7.5119,-7.5187,-7.5173,-7.524,-7.5231,-7.5237,-7.5252,-7.5371,-7.54,-7.5335,-7.5543,-7.5479,-7.5495,-7.552,-7.554,-7.5555,-7.5546,-7.5278,0,0,0,0,0,-7.4842,-7.4924,-7.4977,-7.509,-7.5119,-7.5149,-7.5194,-7.5197,-7.5253,-7.5276,-7.5312,-7.5367,-7.5443,-7.5493,-7.5565,-7.5702,-7.5715,-7.5763,-7.5779,-7.5792,-7.5805,-7.5881,-7.5903,-7.5666,-7.5666,-7.5666,0,0,-7.4898,-7.4945,-7.4996,-7.5102,-7.5145,-7.5228,-7.5168,-7.5258,-7.5319,-7.5289,-7.5402,-7.5431,-7.5492,-7.5619,-7.5677,-7.5647,-7.5874,-7.5805,-7.5815,-7.5821,-7.5894,-7.5916,-7.5936,-7.5673,-7.5672,-7.5671,0,0,-7.5043,-7.5087,-7.5187,-7.5232,-7.53,-7.5319,-7.5343,-7.5405,-7.5424,-7.5538,-7.5517,-7.5589,-7.572,-7.5765,-7.5805,-7.5969,-7.5949,-7.5992,-7.6074,-7.6148,-7.6167,-7.6183,-7.6243,-7.6264,-7.6006,-7.6006,-7.6006,0,-7.5103,-7.5229,-7.5239,-7.5332,-7.5379,-7.5358,-7.5459,-7.5502,-7.5588,-7.5621,-7.5586,-7.5751,-7.5791,-7.5929,-7.597,-7.6003,-7.603,-7.5985,-7.6164,-7.618,-7.6196,-7.6253,-7.6275,-7.6011,-7.601,-7.601,-7.6009,0,-7.5301,-7.5389,-7.5461,-7.5549,-7.5604,-7.57,-7.5723,-7.5777,-7.5775,-7.5798,-7.5914,-7.5962,-7.6044,-7.6077,-7.6074,-7.6216,-7.6195,-7.6162,-7.6099,-7.6223,-7.6277,-7.6299,-7.6018,-7.6016,-7.6014,-7.6013,0,0,-7.5479,-7.5574,-7.56,-7.564,-7.5714,-7.5781,-7.5876,-7.5959,-7.6007,-7.6067,-7.6147,-7.6259,-7.623,-7.6276,-7.6278,-7.6343,-7.6471,-7.6302,-7.6304,-7.6332,-7.6631,-7.6656,-7.6681,-7.6458,-7.6463,-7.6466,-7.6626,0,-7.5631,-7.5801,-7.5814,-7.5966,-7.6048,-7.603,-7.6113,-7.6167,-7.6191,-7.6262,-7.6287,-7.6368,-7.6323,-7.635,-7.6414,-7.6442,-7.6531,-7.6431,-7.6532,-7.6535,-7.6518,-7.6708,-7.6734,-7.6883,-7.6647,-7.665,-7.6653,0,-7.5831,-7.5901,-7.6063,-7.6128,-7.6162,-7.6237,-7.6315,-7.6383,-7.6444,-7.6457,-7.6509,-7.6503,-7.66,-7.6534,-7.6667,-7.6598,-7.664,-7.6661,-7.6667,-7.6676,-7.6602,-7.6724,-7.6931,-7.6954,-7.6686,-7.6683,-7.6681,0,-7.5946,-7.6081,-7.6196,-7.623,-7.6308,-7.6361,-7.6396,-7.6453,-7.6502,-7.657,-7.6602,-7.6679,-7.6721,-7.678,-7.6795,-7.6745,-7.6928,-7.6863,-7.6941,-7.6941,-7.698,-7.6978,-7.7198,-7.7007,-7.7006,-7.7006,-7.7006,0,-7.6114,-7.6214,-7.6249,-7.632,-7.6431,-7.6444,-7.6553,-7.6584,-7.6635,-7.6711,-7.6699,-7.6769,-7.6784,-7.6858,-7.687,-7.6979,-7.6997,-7.701,-7.7012,-7.7011,-7.701,-7.7039,-7.7029,-7.7012,-7.7011,-7.701,-7.7008,0,-7.6262,-7.6289,-7.6414,-7.6478,-7.6497,-7.6576,-7.6631,-7.6698,-7.6721,-7.6817,-7.684,-7.6876,-7.6962,-7.6983,-7.7084,-7.7092,-7.7222,-7.7213,-7.7202,-7.7202,-7.7279,-7.7272,-7.7526,-7.756,-7.7346,-7.7348,-7.735,0,-7.6368,-7.6445,-7.6519,-7.657,-7.6608,-7.669,-7.6742,-7.6757,-7.6811,-7.6887,-7.6945,-7.7031,-7.71,-7.7238,-7.7272,-7.735,-7.7343,-7.7427,-7.7355,-7.7353,-7.7346,-7.7341,-7.7349,-7.7441,-7.7443,-7.7445,-7.7446,0,-7.6553,-7.6564,-7.664,-7.6722,-7.6785,-7.6849,-7.691,-7.6952,-7.6976,-7.7037,-7.7127,-7.7181,-7.7287,-7.7371,-7.745,-7.7483,-7.7469,-7.7469,-7.7492,-7.7492,-7.7483,-7.749,-7.724,-7.7463,-7.7461,-7.746,-7.7459,-7.7459,-7.6684,-7.6752,-7.6816,-7.6901,-7.695,-7.7008,-7.7076,-7.7109,-7.7185,-7.7274,-7.7277,-7.7375,-7.7434,-7.7539,-7.7578,-7.7653,-7.7627,-7.7659,-7.7668,-7.7675,-7.7683,-7.7471,-7.7667,-7.7667,-7.7666,-7.7666,-7.7666,0,-7.6869,-7.691,-7.6989,-7.7077,-7.7145,-7.7128,-7.7196,-7.7253,-7.734,-7.7397,-7.7467,-7.757,-7.7652,-7.7694,-7.7776,-7.7828,-7.7824,-7.7849,-7.7845,-7.7854,-7.7701,-7.7674,-7.7852,-7.7852,-7.7852,-7.7851,-7.7851,-7.7851,-7.6974,-7.7089,-7.7108,-7.7247,-7.7286,-7.7384,-7.7424,-7.7478,-7.7524,-7.7641,-7.7711,-7.7738,-7.779,-7.7875,-7.795,-7.796,-7.7991,-7.802,-7.8027,-7.7883,-7.7864,-7.7846,-7.7821,-7.8027,-7.8027,-7.8173,-7.8175,-7.8176]}]]